Weather Roundup
Issued by NWS Springfield, MO

Home | Current Version | Previous Version | Text Only | Print | Product List | Glossary On
Versions: 1 2 3 4 5 6 7 8 9 10 11 12 13 14 15 16 17 18 19 20 21 22 23 24 25 26 27 28 29 30 31 32 33 34 35 36 37 38 39 40 41 42 43 44 45 46 47 48 49 50
000
NZUS99 KSGF 012207
HRRSGF

HOURLY WEATHER
NATIONAL WEATHER SERVICE SPRINGFIELD MO
400 PM CST MON MAR 01 2021

......SGF CWA......

CITY           SKY/WX    TMP DP  RH WIND       PRES   REMARKS
SPRINGFIELD    SUNNY     52  20  28 CALM      30.29S
JOPLIN         SUNNY     52  25  35 NW10      30.32S
WEST PLAINS    SUNNY     54  22  28 N8        30.28S
ROLLA          SUNNY     49  23  36 W3        30.28F
OSAGE BEACH    SUNNY     51  22  31 N7        30.30F

......SURROUNDING SGF CWA......

CITY           SKY/WX    TMP DP  RH WIND       PRES   REMARKS
CHANUTE        SUNNY     56  23  27 CALM      30.30F
PARSONS          N/A    N/A N/A N/A MISG      30.32S
COFFEYVILLE    SUNNY     55  22  27 CALM      30.31F
EMPORIA        SUNNY     56  17  21 N7        30.29S
GROVE OK       SUNNY     54  23  30 NW7       30.32S
ROGERS AR      SUNNY     54  17  23 NE10      30.29S
SILOAM SPRINGS SUNNY     55  17  22 VRB5      30.29F
HARRISON AR    SUNNY     53  20  27 NE10      30.28S
NEAR YELLVILLE SUNNY     54  24  31 VRB6      30.29F

......KANSAS AND MISSOURI......

CITY           SKY/WX    TMP DP  RH WIND       PRES   REMARKS
KANSAS CTY INT SUNNY     55  23  28 N12       30.30S
DOWNTOWN KC    SUNNY     53  20  27 NW10      30.29S
COLUMBIA       SUNNY     52  24  33 W9        30.28F
SEDALIA        SUNNY     52  28  39 W8G17     30.29S
ST JOSEPH      SUNNY     52  24  33 N9        30.32R
ST LOUIS       MOSUNNY   50  24  36 N3        30.30F
SPIRIT OF STL  SUNNY     51  21  30 N9        30.28F
KIRKSVILLE     SUNNY     49  28  44 N8        30.30R
WICHITA        MOSUNNY   57  17  21 NW13      30.31R
TOPEKA         SUNNY     55  20  25 MISG      30.30S
OLATHE         SUNNY     54  18  24 N9        30.29R

......TENNESSEE......

CITY           SKY/WX    TMP DP  RH WIND       PRES   REMARKS
MEMPHIS        CLOUDY    47  33  58 N8        30.28R
NASHVILLE      CLOUDY    47  23  38 N14       30.26S

......ARKANSAS.......

CITY           SKY/WX    TMP DP  RH WIND       PRES   REMARKS
FAYETTEVILLE   SUNNY     55  17  22 NE7       30.28F
FT SMITH       SUNNY     61  25  25 NE7G17    30.27S
LITTLE ROCK    CLOUDY    50  31  48 NE6       30.31F

......OKLAHOMA.......

CITY           SKY/WX    TMP DP  RH WIND       PRES   REMARKS
TULSA          MOSUNNY   57  24  28 N8        30.31F
PONCA CITY     SUNNY     55  22  27 W6        30.32F
MCALESTER      SUNNY     59  25  27 N13G22    30.29S
OKLAHOMA CITY  MOSUNNY   53  21  28 N10       30.32S

......IOWA............

CITY           SKY/WX    TMP DP  RH WIND       PRES   REMARKS
DES MOINES     MOSUNNY   34  20  56 N7        30.38R WCI  28
QUAD CITIES    SUNNY     35  19  52 N5        30.35R WCI  31

......ILLINOIS........

CITY           SKY/WX    TMP DP  RH WIND       PRES   REMARKS
QUINCY         SUNNY     46  27  47 VRB3      30.30S
CHICAGO        MOSUNNY   33  12  41 NW9       30.30R WCI  25





USA.gov is the U.S. government's official web portal to all federal, state and local government web resources and services.